Location: Briis
(48.6240°N, 2.1211°E)
Time: 10:04:42
(UTC+00:00)

Cosmos 1908 Rocket - Pass Details

Date: 25 September 2020
Orbit: 607 x 631 km, 82.5° (Epoch: 25 October)

Event Time Altitude Azimuth Distance (km) Brightness Sun altitude
Rises 04:55:35 0° 345° (NNW) 2,931 7.0 -8.6°
Reaches altitude 10° 04:57:53 10° 341° (NNW) 2,021 6.1 -8.2°
Maximum altitude 05:02:12 50° 266° (W) 811 3.8 -7.5°
Drops below altitude 10° 05:06:30 10° 192° (SSW) 2,009 6.0 -6.8°
Sets 05:08:47 0° 187° (S) 2,911 6.9 -6.4°
